Weather Service Report


310 
ASUS46 KSTO 160615
RWRCA 

NORTHERN AND CENTRAL CA REGIONAL WEATHER ROUNDUP
NATIONAL WEATHER SERVICE SACRAMENTO CA 
1000 PM PST TUE JAN 15 2019

NOTE: FAIR INDICATES FEW OR NO CLOUDS BELOW 12,000 FEET WITH NO
SIGNIFICANT WEATHER AND/OR OBSTRUCTIONS TO VISIBILITY.

CAZ001-003-160700-
NORTHWEST AREA
  
CITY           SKY/WX    TMP DP  RH WIND       PRES   REMARKS
CRESCENT CITY  CLOUDY    52  45  77 S9        29.68R                  
UKIAH          CLOUDY    48  46  93 CALM      29.79R                  
$$

CAZ006-505>513-160700-
BAY AREA
  
CITY           SKY/WX    TMP DP  RH WIND       PRES   REMARKS
SANTA ROSA     CLOUDY    50  49  96 SE5       29.80R                  
SAN RAFAEL     N/A      MM  MM  MM MISG
NAPA           LGT RAIN  54  51  90 SW12      29.84R                  
CONCORD        CLOUDY    56  50  80 S8        29.86R                  
OAKLAND CITY   N/A       55  MM  MM MISG
OAKLAND        LGT RAIN  55  53  93 S13       29.87R                  
SAN FRAN CITY  N/A       55  MM  90 MISG
SAN FRAN ARPT  CLOUDY    54  50  86 S12G17    29.85R                  
LIVERMORE      CLOUDY    54  50  86 S3        29.86R                  
HAYWARD        CLOUDY    56  50  80 S12       29.87R                  
REDWOOD CITY   N/A       54  MM  92 MISG
MOFFETT ARPT   CLOUDY    56  50  80 S7        29.88R                  
SAN JOSE ARPT  MOCLDY    54  51  90 SE10      29.88R                  
$$
CAZ034-037-514>518-160700-
CENTRAL COAST
  
CITY           SKY/WX    TMP DP  RH WIND       PRES   REMARKS
WATSONVILLE    CLOUDY    55  53  93 SW16G23   29.92R                  
SALINAS        MOCLDY    54  50  86 SE5       29.92R                  
MONTEREY       CLOUDY    57  49  74 S6        29.91R                  
SAN LUIS OBISP LGT RAIN  55  51  86 S7        30.00R                  
SANTA MARIA    PTCLDY    55  51  86 S9        30.00R                  
$$
CAZ015-016-160700-
NORTHERN SACRAMENTO VALLEY
  
CITY           SKY/WX    TMP DP  RH WIND       PRES   REMARKS
RED BLUFF      LGT RAIN  47  45  93 N6        29.81R FOG              
OROVILLE       LGT RAIN  49  46  90 E8        29.83R FOG              
$$
CAZ016>018-160700-
SOUTHERN SACRAMENTO VALLEY
  
CITY           SKY/WX    TMP DP  RH WIND       PRES   REMARKS
AUBURN         CLOUDY    48  46  93 S17G28    29.85R                  
BEALE AFB      LGT RAIN  52  49  89 S28G36    29.80R                  
LINCOLN        CLOUDY    52  48  87 S25G38    29.83R                  
MARYSVILLE     LGT RAIN  52  50  93 S26G35    29.82R                  
SAC INTL ARPT  LGT RAIN  53  49  86 S18G28    29.84R                  
MATHER AIRPORT CLOUDY    54  50  87 S21G33    29.85R                  
DOWNTOWN SAC   N/A       54  MM  MM MISG
SAC EXEC ARPT  CLOUDY    54  49  83 S10G21    29.86R                  
VACAVILLE      CLOUDY    52  52 100 S8        29.85R FOG              
TRAVIS AFB     CLOUDY    52  50  93 S9        29.86R                  
$$
CAZ019>021-160700-
SAN JOAQUIN VALLEY
  
CITY           SKY/WX    TMP DP  RH WIND       PRES   REMARKS
STOCKTON       CLOUDY    54  48  80 SE15      29.87R                  
MODESTO        CLOUDY    53  49  86 SE8       29.91R                  
MERCED         CLOUDY    55  47  74 SE17      29.90R                  
LEMOORE        MOCLDY    54  45  71 SE12      29.97R                  
FRESNO         LGT RAIN  57  45  64 SE12      29.97R                  
HANFORD        CLOUDY    54  48  80 E5        29.99R                  
PORTERVILLE    CLOUDY    53  48  83 E5        30.00R                  
BAKERSFIELD    PTCLDY    58  40  51 E6        29.97R                  
$$
CAZ011-012-071-160700-
NORTHERN MOUNTAINS
  
CITY           SKY/WX    TMP DP  RH WIND       PRES   REMARKS
YREKA          CLOUDY    39  31  72 NE5       29.75R                  
MOUNT SHASTA   LGT SNOW  33  32  96 CALM      29.76R FOG              
ALTURAS        LGT RAIN  35  33  92 NE5       29.79R WCI  31          
$$
CAZ011-012-071-160700-
SIERRA NEVADA MTNS
  
CITY           SKY/WX    TMP DP  RH WIND       PRES   REMARKS
BLUE CANYON    LGT RAIN  35  33  92 S20G38    29.81R VSB 1/2 WCI  24  
TRUCKEE        LGT SNOW  30  30 100 CALM      29.79R                  
TAHOE VLY ARPT FLURRIES  35  31  85 S20G30    29.77R WCI  24          
MAMMOTH LAKES  LGT SNOW  27  27 100 CALM      29.94R                  
$$
  

Return to Home page


Western Regional Climate Center, wrcc@dri.edu